{"data":{"norad_id":53896,"intl_designator":"2022-119L","name":"STARLINK-5037","alt_names":[],"object_type":"PAYLOAD","status":"ACTIVE","operator":null,"country":"US","launch_date":"2022-09-24","launch_site_code":"AFETR","launch_vehicle":null,"mission":null,"orbit_class":"UNKNOWN","rcs_meters":null,"size_class":null,"mass_kg":null,"dimensions":null,"purposes":["comms"],"wikipedia_slug":null,"has_3d_model":false,"image_url":null,"decayed_at":null,"tle_current":{"epoch":"2026-05-24T23:26:39.501312Z","epoch_age_seconds":81032,"freshness":"FRESH","line1":"1 53896U 22119L   26144.97684608 -.00013587  00000+0 -83931-3 0  9993","line2":"2 53896  53.2134 341.4922 0001225 100.1294 259.9836 15.08749301203200","mean_motion":15.08749301,"eccentricity":0.0001225,"inclination_deg":53.2134,"raan_deg":341.4922,"arg_perigee_deg":100.1294,"mean_anomaly_deg":259.9836,"bstar":-0.00083931,"rev_number":20320,"period_min":95.443291940256,"perigee_km":539.1731591004,"apogee_km":540.86810772059,"semimajor_km":6918.1576334105,"source":"CELESTRAK","updated_at":"2026-05-25T13:38:17.583704Z"}}}